Tracking 28888 objects as of 22-May-2024
HD Live streaming from Space Station
objects crossing your sky now

STARLINK-5033

Track STARLINK-5033 now!
10-day predictions
STARLINK-5033 is classified as:


NORAD ID: 55412
Int'l Code: 2023-014X
Perigee: 577.0 km
Apogee: 581.4 km
Inclination: 70.0 °
Period: 96.1 minutes
Semi major axis: 6950 km
RCS: Unknown
Launch date: January 31, 2023
Source: United States (US)
Launch site: AIR FORCE WESTERN TEST RANGE (AFWTR)
Your satellite tracking list
Your tracking list is empty




NASA's NSSDC Master Catalog

Two Line Element Set (TLE):
1 55412U 23014X   24143.00001157 -.00027503  00000-0 -23057-2 0  9993
2 55412  69.9999 300.0852 0003148 272.3932 289.6301 14.98338348 72269
Source of the keplerian elements: AFSPC